| time (UTC) | temp F | wind direction | speed MPH | gust MPH | rain 1hr in | rain 24hr in | rain mn in | humidity % | barometer mb |
| 20260505021515 | 63 | 164 | 4.0 | 10.0 | 0.00 | 0.00 | 0.00 | 60 | 996.5 |
| 20260505020015 | 64 | 155 | 1.0 | 5.0 | 0.00 | 0.00 | 0.00 | 58 | 996.7 |
| 20260505014514 | 64 | 155 | 2.0 | 7.0 | 0.00 | 0.00 | 0.00 | 58 | 996.5 |
| 20260505013014 | 63 | 200 | 1.0 | 5.0 | 0.00 | 0.00 | 0.00 | 59 | 996.3 |
| 20260505011530 | 65 | 212 | 3.0 | 6.0 | 0.00 | 0.00 | 0.00 | 56 | 996.1 |
| 20260505010017 | 65 | 213 | 3.0 | 6.0 | 0.00 | 0.00 | 0.00 | 54 | 996.0 |
| 20260505004512 | 66 | 210 | 2.0 | 7.0 | 0.00 | 0.00 | 0.00 | 51 | 996.2 |
| 20260505003012 | 67 | 217 | 3.0 | 8.0 | 0.00 | 0.00 | 0.00 | 49 | 996.1 |
| 20260505001511 | 68 | 222 | 4.0 | 9.0 | 0.00 | 0.00 | 0.00 | 46 | 996.3 |
| 20260505000013 | 69 | 237 | 5.0 | 12.0 | 0.00 | 0.00 | 0.00 | 44 | 996.1 |
| 20260504234512 | 69 | 234 | 5.0 | 8.0 | 0.00 | 0.00 | 0.00 | 43 | 996.2 |
| 20260504233009 | 70 | 228 | 7.0 | 12.0 | 0.00 | 0.00 | 0.00 | 41 | 996.1 |
| 20260504231509 | 71 | 225 | 8.0 | 19.0 | 0.00 | 0.00 | 0.00 | 39 | 996.3 |
| 20260504230007 | 72 | 210 | 7.0 | 12.0 | 0.00 | 0.00 | 0.00 | 38 | 996.3 |
| 20260504224511 | 72 | 228 | 9.0 | 19.0 | 0.00 | 0.00 | 0.00 | 37 | 996.7 |
| 20260504223003 | 72 | 244 | 11.0 | 17.0 | 0.00 | 0.00 | 0.00 | 36 | 996.8 |
| 20260504221501 | 72 | 232 | 10.0 | 18.0 | 0.00 | 0.00 | 0.00 | 35 | 997.1 |
| 20260504214607 | 74 | 221 | 13.0 | 20.0 | 0.00 | 0.00 | 0.00 | 32 | 997.2 |
| 20260504213057 | 74 | 227 | 10.0 | 18.0 | 0.00 | 0.00 | 0.00 | 32 | 997.2 |
| 20260504211557 | 74 | 234 | 9.0 | 22.0 | 0.00 | 0.00 | 0.00 | 33 | 997.2 |
| 20260504210059 | 74 | 221 | 10.0 | 17.0 | 0.00 | 0.00 | 0.00 | 32 | 997.4 |
| 20260504204601 | 74 | 228 | 11.0 | 20.0 | 0.00 | 0.00 | 0.00 | 32 | 997.3 |
| 20260504203058 | 74 | 219 | 10.0 | 20.0 | 0.00 | 0.00 | 0.00 | 33 | 997.3 |
| 20260504201553 | 74 | 211 | 8.0 | 20.0 | 0.00 | 0.00 | 0.00 | 34 | 997.5 |
| 20260504200057 | 75 | 219 | 10.0 | 20.0 | 0.00 | 0.00 | 0.00 | 33 | 997.6 |
| 20260504194558 | 74 | 210 | 12.0 | 23.0 | 0.00 | 0.00 | 0.00 | 31 | 997.7 |
| 20260504193048 | 75 | 229 | 11.0 | 20.0 | 0.00 | 0.00 | 0.00 | 33 | 997.9 |
| 20260504191605 | 74 | 205 | 13.0 | 24.0 | 0.00 | 0.00 | 0.00 | 32 | 997.9 |
| 20260504190049 | 74 | 221 | 15.0 | 23.0 | 0.00 | 0.00 | 0.00 | 31 | 998.0 |
| 20260504184543 | 74 | 221 | 10.0 | 24.0 | 0.00 | 0.00 | 0.00 | 35 | 998.1 |
| 20260504183041 | 74 | 239 | 12.0 | 21.0 | 0.00 | 0.00 | 0.00 | 34 | 998.2 |
| 20260504181539 | 73 | 235 | 12.0 | 23.0 | 0.00 | 0.00 | 0.00 | 35 | 998.4 |
| 20260504180036 | 73 | 227 | 14.0 | 22.0 | 0.00 | 0.00 | 0.00 | 37 | 998.7 |
| 20260504174534 | 73 | 217 | 10.0 | 20.0 | 0.00 | 0.00 | 0.00 | 38 | 998.9 |
| 20260504173031 | 73 | 226 | 11.0 | 17.0 | 0.00 | 0.00 | 0.00 | 39 | 999.2 |
| 20260504171542 | 72 | 217 | 11.0 | 20.0 | 0.00 | 0.00 | 0.00 | 39 | 999.4 |
| 20260504081527 | 46 | 179 | 0.0 | 3.0 | 0.00 | 0.00 | 0.00 | 76 | 1003.5 |
| 20260504044605 | 51 | 193 | 5.0 | 11.0 | 0.00 | 0.00 | 0.00 | 65 | 1005.4 |
| 20260504043053 | 52 | 194 | 3.0 | 11.0 | 0.00 | 0.00 | 0.00 | 64 | 1005.6 |
| 20260504041549 | 52 | 205 | 5.0 | 12.0 | 0.00 | 0.00 | 0.00 | 63 | 1005.6 |
| 20260504040051 | 52 | 232 | 6.0 | 16.0 | 0.00 | 0.00 | 0.00 | 63 | 1005.7 |
| 20260504034545 | 52 | 209 | 6.0 | 14.0 | 0.00 | 0.00 | 0.00 | 64 | 1005.8 |
| 20260504033043 | 51 | 213 | 6.0 | 10.0 | 0.00 | 0.00 | 0.00 | 64 | 1005.9 |
| 20260504031544 | 51 | 218 | 6.0 | 13.0 | 0.00 | 0.00 | 0.00 | 64 | 1006.1 |
| 20260504030042 | 52 | 200 | 5.0 | 12.0 | 0.00 | 0.00 | 0.00 | 63 | 1006.3 |
| 20260504024542 | 52 | 223 | 6.0 | 13.0 | 0.00 | 0.00 | 0.00 | 62 | 1006.3 |
| 20260504023042 | 53 | 225 | 7.0 | 15.0 | 0.00 | 0.00 | 0.00 | 61 | 1006.4 |